This is the latest recevied weather packets stored in our database for station/object YO8SDE-8. If no packets are shown the sender has not sent any weather packets the latest 1 day(s).
| Time | Temp. | Humidity | Pressure | Rain* | Wind** | Luminosity | Snow |
|---|---|---|---|---|---|---|---|
| 1777963560 | 23.33° C | 47% | 1003.8 hPa | 0 mm | 0 m/s | - | - |
| 1777963260 | 22.78° C | 48% | 1003.7 hPa | 0 mm | 0 m/s | - | - |
| 1777962960 | 22.78° C | 49% | 1003.7 hPa | 0 mm | 0 m/s | - | - |
| 1777962660 | 22.22° C | 50% | 1003.6 hPa | 0 mm | 0 m/s | - | - |
| 1777962360 | 21.67° C | 51% | 1003.7 hPa | 0 mm | 0 m/s | - | - |
| 1777962060 | 21.11° C | 52% | 1003.7 hPa | 0 mm | 0 m/s | - | - |
| 1777961760 | 20.56° C | 54% | 1003.5 hPa | 0 mm | 0 m/s | - | - |
| 1777961460 | 20° C | 56% | 1003.5 hPa | 0 mm | 0 m/s | - | - |
| 1777961160 | 19.44° C | 57% | 1003.6 hPa | 0 mm | 0 m/s | - | - |
| 1777960860 | 18.89° C | 58% | 1003.7 hPa | 0 mm | 0 m/s | - | - |
| 1777960560 | 18.89° C | 59% | 1003.7 hPa | 0 mm | 0 m/s | - | - |
| 1777960260 | 18.89° C | 59% | 1003.7 hPa | 0 mm | 0 m/s | - | - |
| 1777959960 | 18.89° C | 61% | 1003.7 hPa | 0 mm | 0 m/s | - | - |
| 1777959660 | 18.89° C | 61% | 1003.8 hPa | 0 mm | 0 m/s | - | - |
| 1777959360 | 18.33° C | 64% | 1003.7 hPa | 0 mm | 0 m/s | - | - |
| 1777959060 | 17.78° C | 65% | 1003.7 hPa | 0 mm | 0 m/s | - | - |
| 1777958760 | 16.67° C | 66% | 1003.7 hPa | 0 mm | 0 m/s | - | - |
| 1777958460 | 16.11° C | 67% | 1003.8 hPa | 0 mm | 0 m/s | - | - |
| 1777958160 | 15.56° C | 66% | 1003.8 hPa | 0 mm | 0 m/s | - | - |
| 1777957860 | 14.44° C | 67% | 1003.6 hPa | 0 mm | 0 m/s | - | - |
| 1777957560 | 12.78° C | 66% | 1003.7 hPa | 0 mm | 0 m/s | - | - |
| 1777957260 | 12.22° C | 66% | 1003.7 hPa | 0 mm | 0 m/s | - | - |
| 1777956960 | 11.67° C | 67% | 1003.7 hPa | 0 mm | 0 m/s | - | - |
| 1777956660 | 11.67° C | 67% | 1003.5 hPa | 0 mm | 0 m/s | - | - |
| 1777956360 | 11.11° C | 67% | 1003.5 hPa | 0 mm | 0 m/s | - | - |
* Rain latest hour (hover to see other rain measurements)
** Current wind speed in m/s (hover to see current wind gust speed)